Wilkerson Pass, CO

11:58 AM MDT on June 25, 2017 (GMT -0600)
Wilkerson Pass

Weather History for K4BM - July, 2012

Change the Weather History Date:

Monday, July 2, 2012

  Actual Average (KAFF) Record (KAFF)
Temperature  
Mean Temperature 62 °F -  
Max Temperature 71 °F 81 °F 95 °F (2002)
Min Temperature 53 °F 51 °F 44 °F (1997)
Degree Days  
Heating Degree Days 3    
Growing Degree Days 12 (Base 50)    
Moisture  
Dew Point 31 °F    
Average Humidity 33    
Maximum Humidity 62    
Minimum Humidity 16    
Precipitation  
Precipitation 0.00 in - - ()
Sea Level Pressure  
Sea Level Pressure 30.57 in    
Wind  
Wind Speed 5 mph (NE)    
Max Wind Speed 10 mph    
Max Gust Speed 28 mph    
Visibility 10 miles    
Events Rain    
Averages and records for this station are not official NWS values.
T = Trace of Precipitation, MM = Missing Value Source: NWS Daily Summary

Daily Weather History Graph

Daily Weather History Graph

Search for Another Location

Airport or City:

Trip Planner

Search our weather history database for the weather conditions in past years. The results will help you decide how hot, cold, wet, or windy it might be!

Date:

Astronomy

Jul. 02, 2012 Rise Set
Actual Time 5:40 AM MDT 8:31 PM MDT
Civil Twilight 5:08 AM MDT 9:03 PM MDT
Nautical Twilight 4:28 AM MDT 9:43 PM MDT
Astronomical Twilight 3:42 AM MDT 10:29 PM MDT
Moon 7:37 PM MDT (7/2) 4:30 AM MDT (7/2)
Length of Visible Light 15h 54m
Length of Day
14h 50m
Waxing Gibbous, 98% of the Moon is Illuminated
Jul 2
Waxing Gibbous
Jul 3
Full
Jul 10
Last Quarter
Jul 18
New
Jul 26
First Quarter

Hourly Weather History & Observations

Time (MDT) Temp. Dew Point Humidity Pressure Visibility Wind Dir Wind Speed Gust Speed Precip Events Conditions
7:08 AM 55.4 °F 32.0 °F 41% 30.56 in 10.0 mi WNW 6.9 mph - N/A   Clear
7:28 AM 59.0 °F 26.6 °F 29% 30.56 in 10.0 mi WNW 6.9 mph - N/A   Clear
8:08 AM 64.4 °F 24.8 °F 22% 30.57 in 10.0 mi NNW 8.1 mph - N/A   Clear
8:28 AM 64.4 °F 26.6 °F 24% 30.58 in 10.0 mi North 6.9 mph - N/A   Clear
8:48 AM 66.2 °F 26.6 °F 23% 30.58 in 10.0 mi North 6.9 mph - N/A   Clear
9:08 AM 66.2 °F 26.6 °F 23% 30.58 in 10.0 mi NNW 5.8 mph - N/A   Clear
9:27 AM 68.0 °F 28.4 °F 23% 30.58 in 10.0 mi NNE 5.8 mph - N/A   Clear
9:48 AM 68.0 °F 28.4 °F 23% 30.58 in 10.0 mi East 4.6 mph - N/A   Clear
10:08 AM 68.0 °F 30.2 °F 24% 30.58 in 10.0 mi Calm Calm - N/A   Clear
10:28 AM 68.0 °F 28.4 °F 23% 30.58 in 10.0 mi South 3.5 mph - N/A   Clear
10:48 AM 69.8 °F 28.4 °F 21% 30.58 in 10.0 mi East 3.5 mph - N/A   Scattered Clouds
11:08 AM 71.6 °F 24.8 °F 17% 30.57 in 10.0 mi ESE 8.1 mph - N/A   Mostly Cloudy
11:28 AM 71.6 °F 23.0 °F 16% 30.57 in 10.0 mi NNW 5.8 mph - N/A   Overcast
11:48 AM 71.6 °F 23.0 °F 16% 30.57 in 10.0 mi NNE 4.6 mph - N/A   Scattered Clouds
12:08 PM 68.0 °F 24.8 °F 20% 30.57 in 10.0 mi NNE 6.9 mph - N/A   Mostly Cloudy
12:28 PM 66.2 °F 24.8 °F 21% 30.57 in 10.0 mi NNE 9.2 mph 16.1 mph N/A   Overcast
12:48 PM 69.8 °F 24.8 °F 18% 30.57 in 10.0 mi NE 6.9 mph - N/A   Scattered Clouds
1:08 PM 69.8 °F 28.4 °F 21% 30.57 in 10.0 mi East 10.4 mph 17.3 mph N/A   Scattered Clouds
1:28 PM 68.0 °F 28.4 °F 23% 30.57 in 10.0 mi East 8.1 mph - N/A   Scattered Clouds
1:48 PM 69.8 °F 28.4 °F 21% 30.57 in 10.0 mi ESE 8.1 mph - N/A   Scattered Clouds
2:07 PM 68.0 °F 26.6 °F 21% 30.56 in 10.0 mi NNE 9.2 mph - N/A   Mostly Cloudy
2:28 PM 66.2 °F 26.6 °F 23% 30.57 in 10.0 mi NE 5.8 mph - N/A   Mostly Cloudy
2:48 PM 64.4 °F 28.4 °F 26% 30.57 in 10.0 mi NNE 5.8 mph - N/A   Mostly Cloudy
3:08 PM 60.8 °F 33.8 °F 36% 30.57 in 10.0 mi NW 9.2 mph - N/A Rain Light Rain
3:28 PM 53.6 °F 41.0 °F 62% 30.59 in 5.0 mi WSW 4.6 mph 27.6 mph N/A Rain Light Rain
3:48 PM 57.2 °F 37.4 °F 48% 30.57 in 10.0 mi North 10.4 mph - N/A Rain Rain
4:08 PM 62.6 °F 33.8 °F 34% 30.57 in 10.0 mi North 3.5 mph - N/A   Mostly Cloudy
4:28 PM 62.6 °F 35.6 °F 37% 30.56 in 10.0 mi Calm Calm - N/A   Mostly Cloudy
4:48 PM 62.6 °F 35.6 °F 37% 30.57 in 10.0 mi Calm Calm - N/A   Mostly Cloudy
5:08 PM 62.6 °F 32.0 °F 32% 30.56 in 10.0 mi South 5.8 mph - N/A   Overcast
5:28 PM 60.8 °F 32.0 °F 34% 30.56 in 10.0 mi SSE 5.8 mph 20.7 mph N/A   Mostly Cloudy
5:48 PM 59.0 °F 35.6 °F 42% 30.56 in 10.0 mi SSE 4.6 mph 17.3 mph N/A Rain Light Rain
6:08 PM 60.8 °F 33.8 °F 36% 30.57 in 10.0 mi SE 4.6 mph - N/A   Mostly Cloudy
6:28 PM 60.8 °F 35.6 °F 39% 30.57 in 10.0 mi Calm Calm - N/A   Scattered Clouds
6:48 PM 59.0 °F 33.8 °F 39% 30.57 in 10.0 mi Calm Calm - N/A   Clear
7:08 PM 59.0 °F 33.8 °F 39% 30.56 in 10.0 mi Calm Calm - N/A   Clear
7:28 PM 59.0 °F 33.8 °F 39% 30.56 in 10.0 mi SSE 3.5 mph - N/A   Scattered Clouds
7:48 PM 59.0 °F 32.0 °F 36% 30.56 in 10.0 mi Calm Calm - N/A   Mostly Cloudy
8:08 PM 59.0 °F 32.0 °F 36% 30.56 in 10.0 mi Calm Calm - N/A   Mostly Cloudy
8:28 PM 55.4 °F 33.8 °F 44% 30.56 in 10.0 mi WSW 3.5 mph - N/A   Scattered Clouds
8:48 PM 55.4 °F 33.8 °F 44% 30.56 in 10.0 mi WSW 3.5 mph - N/A   Clear
9:08 PM 55.4 °F 33.8 °F 44% 30.58 in 10.0 mi Calm Calm - N/A   Scattered Clouds
9:28 PM 57.2 °F 33.8 °F 41% 30.59 in 10.0 mi Calm Calm - N/A   Mostly Cloudy
9:48 PM 53.6 °F 33.8 °F 47% 30.59 in 10.0 mi Calm Calm - N/A   Scattered Clouds
10:08 PM 53.6 °F 33.8 °F 47% 30.58 in 10.0 mi Calm Calm - N/A   Clear
10:28 PM 53.6 °F 33.8 °F 47% 30.58 in 10.0 mi Calm Calm - N/A   Clear
10:48 PM 53.6 °F 33.8 °F 47% 30.58 in 10.0 mi Calm Calm - N/A   Clear
11:08 PM 53.6 °F 35.6 °F 51% 30.58 in 10.0 mi NE 3.5 mph - N/A   Clear
11:28 PM 55.4 °F 35.6 °F 47% 30.58 in 10.0 mi Calm Calm - N/A   Scattered Clouds
11:48 PM 55.4 °F 35.6 °F 47% 30.57 in 10.0 mi Calm Calm - N/A   Mostly Cloudy